Погода в Реховоте

Израиль     31°53′38″N   34°48′40″E
темп.,
°C
ветер,
м/с
пор.,
м/с
влажн.,
%
обл.,
%
осадки,
мм/ч
давл.,
гПа
погр.,
м
20 сентября, пн
пн2000:00+27с23610 0.0 1014432
03:00+26св12640 0.0 1013369
06:00+25всв12680 0.0 1013250
09:00+27ю11620 0.0 1014336
12:00+29сз43530 0.0 1014625
15:00+30ссз55530 0.0 1012625
18:00+29с56590 0.0 1012572
21:00+28с34640 0.0 1013336
21 сентября, вт
вт2100:00+27с23680 0.0 1013349
03:00+26ссв23700 0.0 1012367
06:00+25в11730 0.0 1012203
09:00+27св01650 0.0 1013386
12:00+30сз44510 0.0 1013656
15:00+30сз55500 0.0 1011632
18:00+29ссз56550 0.0 1011568
21:00+28ссз33590 0.0 1011358
22 сентября, ср
ср2200:00+27з22650 0.0 1011365
03:00+26ююз22690 0.0 1010364
06:00+25ю33730 0.0 1010321
09:00+27ююз44690 0.0 1010733
12:00+29зюз66600 0.0 1009890
15:00+29з66570 0.0 1008883
18:00+28з56610 0.0 1008835
21:00+27з45650 0.0 1008615
23 сентября, чт
чт2300:00+27зюз46610 0.0 1008655
03:00+26з57580 0.0 1007832
06:00+26зюз67610 0.0 1007897
09:00+27зюз78550 0.0 10081380
12:00+28з78520 0.0 10081462
15:00+28з88530 0.0 10081463
18:00+27зсз66560 0.0 10081267
21:00+26зсз45611 0.0 1008935
24 сентября, пт
пт2400:00+26з56620 0.2 1009993
03:00+25зсз676964 1.5 1009805
06:00+25зсз6761100 0.8 10091201
09:00+24з7758100 0.9 10101460
12:00+26з785159 0.0 10111709
15:00+26з665085 0.0 10111772
18:00+25з44480 0.0 10111634
21:00+24сз22522 0.0 10131116